Regional Weather Roundup
Issued by NWS

Home | Current Version | Previous Version | Graphics & Text | Print | Product List | Glossary On
Versions: 1 2 3 4 5 6 7 8 9 10 11 12 13 14 15 16 17 18 19 20 21 22 23 24 25 26 27 28 29 30 31 32 33 34 35 36 37 38 39 40 41 42 43 44 45 46 47 48 49 50
000
ASUS43 KOAX 211210
RWRNE

WEATHER ROUNDUP FOR NEBRASKA
NATIONAL WEATHER SERVICE OMAHA NE
700 AM CDT THU AUG 21 2014

NOTES: SATELLITE DATA IS BEING USED TO AUGMENT CLOUD COVER ABOVE
       12000 FEET.
       "FAIR" INDICATES FEW OR NO CLOUDS BELOW 12,000 FEET WITH NO
       SIGNIFICANT WEATHER AND/OR OBSTRUCTIONS TO VISIBILITY.

  * THESE STATIONS DO NOT REPORT WEATHER SUCH AS RAIN...SNOW OR FOG.

NEZ001>004-019>022-054>056-211300-
NEBRASKA PANHANDLE

CITY           SKY/WX    TMP DP  RH WIND       PRES   REMARKS
SCOTTSBLUFF    CLEAR     58  50  75 NW5       29.98R
6HR MIN TEMP:  58; 6HR MAX TEMP:  73;

ALLIANCE       CLEAR     60  54  80 N7        29.94R
6HR MIN TEMP:  59; 6HR MAX TEMP:  73;

CHADRON        PTCLDY    57  53  86 S3        29.94R
6HR MIN TEMP:  57; 6HR MAX TEMP:  65;

KIMBALL        CLEAR     57  47  70 W8        30.02R
SIDNEY         PTCLDY    62  52  69 W13       29.99R
6HR MIN TEMP:  62; 6HR MAX TEMP:  67; 6HR PCP:  0.02;

$$

NEZ057>060-069>072-079>082-211300-
SOUTHWEST NEBRASKA

CITY           SKY/WX    TMP DP  RH WIND       PRES   REMARKS
NORTH PLATTE   PTCLDY    63  61  93 CALM      29.86F
6HR MIN TEMP:  62; 6HR MAX TEMP:  73;

IMPERIAL       PTCLDY    65  61  87 N5        29.90R
6HR MIN TEMP:  64; 6HR MAX TEMP:  72; 6HR PCP: TRACE;

LEXINGTON      CLEAR     66  64  91 N6        29.86R
MCCOOK         PTCLDY    69  61  75 N9        29.84S
6HR MIN TEMP:  66; 6HR MAX TEMP:  75;

OGALLALA       CLOUDY    64  59  82 W7        29.90R
$$

NEZ005>010-023>029-035>040-094-211300-
NORTH CENTRAL NEBRASKA

CITY           SKY/WX    TMP DP  RH WIND       PRES   REMARKS
VALENTINE      MOCLDY    63  61  93 SW7       29.85R
6HR MIN TEMP:  63; 6HR MAX TEMP:  73;

AINSWORTH      MOCLDY    67  61  82 W3        29.86R
BROKEN BOW     PTCLDY    65  61  87 W5        29.87R
6HR MIN TEMP:  63; 6HR MAX TEMP:  76; 6HR PCP:  0.01;

O`NEILL        PTCLDY    71  65  82 S7        29.81R
ORD            MOCLDY    68  64  87 W3        29.83R
6HR MIN TEMP:  68; 6HR MAX TEMP:  78; 6HR PCP: TRACE;

THEDFORD       MOCLDY    68  60  75 NW9       29.89S
$$

NEZ041-046>049-061>064-073>077-083>087-211300-
SOUTH CENTRAL NEBRASKA

CITY           SKY/WX    TMP DP  RH WIND       PRES   REMARKS
GRAND ISLAND   MOCLDY    70  67  90 SE10      29.80S
6HR MIN TEMP:  67; 6HR MAX TEMP:  81; 6HR PCP:  0.25;

AURORA         CLOUDY    71  69  95 SE8       29.80F
HASTINGS       CLOUDY    71  65  81 SE12      29.81R
6HR MIN TEMP:  67; 6HR MAX TEMP:  79; 6HR PCP:  0.71;

HEBRON         CLOUDY    72  66  81 E3        29.86R
HOLDREGE       MOCLDY    72  67  84 SE5       29.81R
KEARNEY *      MOCLDY    68  64  88 CALM      29.82R
YORK           CLOUDY    72 N/A N/A S10       29.81S
$$

NEZ011>018-030>034-042>045-211300-
NORTHEAST NEBRASKA

CITY           SKY/WX    TMP DP  RH WIND       PRES   REMARKS
NORFOLK        CLOUDY    74  62  66 S14       29.76F
6HR MIN TEMP:  71; 6HR MAX TEMP:  80; 6HR PCP: TRACE;

ALBION         MOCLDY    69  63  79 CALM      29.80R
BLAIR          CLOUDY    78  67  68 S15       29.80S
COLUMBUS *     CLOUDY    66  63  88 S16       29.76F
FREMONT        RAIN      74  65  71 S22G31    29.73F
TEKAMAH        LGT RAIN  76  69  79 S14       29.72F
6HR MIN TEMP:  76; 6HR MAX TEMP:  79; 6HR PCP:  0.01;

WAYNE          CLOUDY    73  64  72 W7        29.77R
$$

NEZ050>053-065>068-078-088>093-211300-
SOUTHEAST NEBRASKA

CITY           SKY/WX    TMP DP  RH WIND       PRES   REMARKS
LINCOLN        LGT RAIN  75  67  76 W6        29.84R
6HR MIN TEMP:  75; 6HR MAX TEMP:  84; 6HR PCP:  0.01;

OMAHA EPPLEY   CLOUDY    80  67  64 S12       29.81R
6HR MIN TEMP:  77; 6HR MAX TEMP:  81;

BEATRICE       CLOUDY    75  68  78 NW6       29.87R
FALLS CITY     MOCLDY    79  69  71 SW8G17    29.83R
6HR MIN TEMP:  78; 6HR MAX TEMP:  81;

NEBRASKA CITY  CLOUDY    75  67  75 SW7       29.85R
PLATTSMOUTH    CLOUDY    78  66  67 SW13G20   29.85R
$$

NEZ044-045-051>053-067-211300-
OMAHA AREA

CITY           SKY/WX    TMP DP  RH WIND       PRES   REMARKS
OMAHA EPPLEY   CLOUDY    80  67  64 S12       29.81R
6HR MIN TEMP:  77; 6HR MAX TEMP:  81;

BLAIR          CLOUDY    78  67  68 S15       29.80S
FREMONT        RAIN      74  65  71 S22G31    29.73F
MILLARD        CLOUDY    80  68  66 SW7       29.82R
OFFUTT AFB     CLOUDY    77  71  81 VRB3      29.83R
PLATTSMOUTH    CLOUDY    78  66  67 SW13G20   29.85R
WAHOO          LGT RAIN  74  65  74 SW14      29.80S
$$



USA.gov is the U.S. government's official web portal to all federal, state and local government web resources and services.